Location: Newark
(54.2500°N, 9.1833°E)
Time: 05:03:09
(UTC+00:00)

Vanguard 2 Rocket - Pass Details

Date: 12 December 2019
Orbit: 554 x 3326 km, 32.9° (Epoch: 20 January)

Event Time Altitude Azimuth Distance (km) Brightness Sun altitude
Rises 18:16:34 0° 239° (WSW) 6,352 12.1 -27.2°
Reaches altitude 10° 18:22:40 10° 226° (SW) 4,810 11.1 -28.1°
Maximum altitude 18:30:51 20° 186° (S) 3,207 9.7 -29.2°
Enters shadow 18:34:17 17° 160° (SSE) 3,080 9.4 -29.7°
